Location: Unspecified
(0.0000°N, 0.0000°E)
Time: 19:04:36
(UTC+00:00)

Vanguard 2 - Visible Passes

Search period start: 26 April 2018 00:00
Search period end: 06 May 2018 00:00
Orbit: 553 x 2939 km, 32.9° (Epoch: 26 April)

Date Brightness Start Highest point End Pass type
(mag) Time Alt. Az. Time Alt. Az. Time Alt. Az.
26 Apr 9.3 03:59:15 14° N 04:00:47 17° NE 04:03:43 10° E visible
26 Apr 11.1 19:17:00 10° W 19:31:24 35° NW 19:41:45 10° NNE visible
27 Apr 8.4 04:17:05 23° N 04:18:48 34° NE 04:22:57 10° ESE visible
27 Apr 11.2 19:37:20 10° W 19:49:46 27° NW 19:59:04 10° NNE visible
28 Apr 7.1 04:34:55 30° NW 04:36:47 72° NE 04:41:30 10° ESE visible
28 Apr 11.3 19:58:24 10° WNW 20:08:22 20° NNW 20:16:11 10° N visible
29 Apr 7.1 04:52:46 25° W 04:54:51 54° SSW 04:59:34 10° SE visible
29 Apr 11.3 17:57:45 10° WSW 18:14:16 45° NW 18:27:15 10° NNE visible
29 Apr 11.4 20:20:26 10° WNW 20:27:13 14° NNW 20:32:55 10° N visible
30 Apr 8.1 05:10:36 16° W 05:13:02 27° SSW 05:17:12 10° SSE visible
30 Apr 11.4 18:17:32 10° W 18:32:44 35° NW 18:44:48 10° NNE visible
30 Apr 11.5 20:44:28 10° NNW 20:46:22 10° NNW 20:48:10 10° NNW visible
01 May 8.9 05:28:55 10° WSW 05:31:23 15° SSW 05:34:13 10° S visible
01 May 11.4 18:37:57 10° W 18:51:23 27° NNW 19:02:16 10° NNE visible
02 May 9.7 03:44:40 12° SE 03:44:40 12° SE 03:45:01 10° SE visible
02 May 11.5 18:59:03 10° WNW 19:10:18 21° NNW 19:19:37 10° NNE visible
03 May 9.5 04:02:23 12° SSE 04:02:23 12° SSE 04:02:47 10° SSE visible
03 May 11.6 19:20:51 10° WNW 19:29:31 16° NNW 19:36:54 10° N visible
04 May 11.6 19:43:18 10° NW 19:49:00 13° NNW 19:54:04 10° N visible
05 May 11.5 20:06:23 10° NNW 20:08:42 10° NNW 20:10:53 10° N visible
